Change the Weather History Date:

Tuesday, December 3, 2013

  Actual Average Record
Temperature  
Mean Temperature 13 °F -  
Max Temperature 19 °F 33 °F 53 °F (2012)
Min Temperature 6 °F 10 °F -15 °F (2006)
Degree Days  
Heating Degree Days 52 44  
Month to date heating degree days 111 130  
Since 1 July heating degree days 2135 2260  
Moisture  
Dew Point 8 °F    
Average Humidity 84    
Maximum Humidity 92    
Minimum Humidity 76    
Precipitation  
Precipitation T in 0.01 in 0.05 in (1997)
Month to date precipitation 0.02 0.02  
Year to date precipitation 24.75 15.81  
Sea Level Pressure  
Sea Level Pressure 29.88 in    
Wind  
Wind Speed 15 mph (NNE)    
Max Wind Speed 23 mph    
Max Gust Speed 29 mph    
Visibility 2 miles    
Events Fog , Snow    
T = Trace of Precipitation, MM = Missing Value Source: NWS Daily Summary

Daily Weather History Graph

Daily Weather History Graph

Search for Another Location

Airport or City:

Trip Planner

Search our weather history database for the weather conditions in past years. The results will help you decide how hot, cold, wet, or windy it might be!

Date:

Astronomy

Dec. 03, 2013 Rise Set
Actual Time 7:14 AM MST 4:06 PM MST
Civil Twilight 6:40 AM MST 4:40 PM MST
Nautical Twilight 6:03 AM MST 5:17 PM MST
Astronomical Twilight 5:27 AM MST 5:53 PM MST
Moon 7:44 AM MST (12/3) 5:13 PM MST (12/3)
Length of Visible Light 9h 59m
Length of Day
8h 51m
New Moon, 1% of the Moon is Illuminated
Dec 3
New Moon
Dec 9
First Quarter
Dec 17
Full
Dec 25
Last Quarter
Jan 1
New

Hourly Weather History & Observations

Time (MST) Temp. Windchill Dew Point Humidity Pressure Visibility Wind Dir Wind Speed Gust Speed Precip Events Conditions
12:53 AM 18.0 °F 3.1 °F 16.0 °F 92% 29.76 in 7.0 mi NE 16.1 mph - N/A   Overcast
1:53 AM 18.0 °F 1.3 °F 15.1 °F 88% 29.78 in 5.0 mi NE 20.7 mph 26.5 mph N/A   Overcast
2:53 AM 18.0 °F 0.9 °F 15.1 °F 88% 29.80 in 3.0 mi NE 21.9 mph 26.5 mph 0.00 in Snow Light Snow
3:02 AM 17.6 °F 0.1 °F 15.8 °F 93% 29.71 in 2.5 mi NE 23.0 mph - 0.00 in Snow Light Snow
3:10 AM 17.6 °F 2.7 °F 15.8 °F 93% 29.71 in 3.0 mi NE 16.1 mph - 0.00 in Snow Light Snow
3:29 AM 17.6 °F 1.7 °F 15.8 °F 93% 29.72 in 2.5 mi NE 18.4 mph 25.3 mph 0.00 in Snow Light Snow
3:53 AM 17.1 °F 1.5 °F 15.1 °F 92% 29.83 in 2.5 mi NE 17.3 mph 25.3 mph 0.00 in Snow Light Snow
4:53 AM 17.1 °F 1.0 °F 14.0 °F 88% 29.83 in 3.0 mi NE 18.4 mph 27.6 mph 0.00 in Snow Light Snow
4:59 AM 17.6 °F 1.3 °F 14.0 °F 86% 29.73 in 1.8 mi NE 19.6 mph 25.3 mph 0.00 in Snow Light Snow
5:16 AM 17.6 °F 1.7 °F 14.0 °F 86% 29.74 in 2.0 mi NE 18.4 mph 25.3 mph 0.00 in Snow Light Snow
5:36 AM 15.8 °F -0.6 °F 14.0 °F 93% 29.74 in 1.8 mi NE 18.4 mph - 0.00 in Snow Light Snow
5:53 AM 16.0 °F -0.4 °F 12.9 °F 88% 29.86 in 1.2 mi NE 18.4 mph - 0.00 in Snow Light Snow
6:00 AM 15.8 °F 0.3 °F 12.2 °F 86% 29.74 in 1.5 mi NNE 16.1 mph 24.2 mph 0.00 in Snow Light Snow
6:10 AM 15.8 °F 0.9 °F 12.2 °F 86% 29.75 in 2.5 mi NNE 15.0 mph 24.2 mph 0.00 in Snow Light Snow
6:28 AM 15.8 °F 0.9 °F 12.2 °F 86% 29.76 in 3.0 mi NNE 15.0 mph - 0.00 in Snow Light Snow
6:36 AM 15.8 °F -0.2 °F 12.2 °F 86% 29.77 in 2.0 mi NE 17.3 mph 24.2 mph 0.00 in Snow Light Snow
6:44 AM 15.8 °F -0.2 °F 12.2 °F 86% 29.78 in 1.5 mi NE 17.3 mph 24.2 mph 0.00 in Snow Light Snow
6:51 AM 15.8 °F 0.3 °F 12.2 °F 86% 29.78 in 1.5 mi NE 16.1 mph 24.2 mph 0.00 in Snow Light Snow
6:53 AM 15.1 °F -0.1 °F 12.0 °F 88% 29.90 in 1.5 mi NNE 15.0 mph 21.9 mph 0.00 in Snow Light Snow
7:14 AM 15.8 °F 1.4 °F 12.2 °F 86% 29.79 in 1.5 mi NNE 13.8 mph - 0.00 in Snow Light Snow
7:31 AM 14.0 °F -1.4 °F 10.4 °F 86% 29.79 in 2.5 mi NNE 15.0 mph 21.9 mph 0.00 in Snow Light Snow
7:41 AM 14.0 °F -0.2 °F 10.4 °F 86% 29.80 in 3.0 mi NNE 12.7 mph - 0.00 in Snow Light Snow
7:50 AM 14.0 °F -0.2 °F 10.4 °F 86% 29.81 in 1.8 mi NNE 12.7 mph - 0.00 in Snow Light Snow
7:53 AM 14.0 °F -0.8 °F 10.9 °F 88% 29.94 in 1.5 mi NNE 13.8 mph - 0.00 in Snow Light Snow
8:12 AM 14.0 °F -1.4 °F 10.4 °F 86% 29.82 in 0.8 mi NNE 15.0 mph - 0.00 in Snow Light Snow
8:27 AM 12.2 °F -2.5 °F 10.4 °F 92% 29.83 in 1.0 mi NNE 12.7 mph - 0.00 in Snow Light Snow
8:37 AM 14.0 °F 0.5 °F 10.4 °F 86% 29.83 in 0.8 mi NNE 11.5 mph - 0.00 in Snow Light Snow
8:53 AM 12.9 °F -3.9 °F 10.0 °F 88% 29.96 in 0.8 mi NNE 17.3 mph 23.0 mph 0.00 in Snow Light Snow
9:48 AM 12.2 °F -2.5 °F 8.6 °F 85% 29.86 in 0.8 mi North 12.7 mph 20.7 mph 0.00 in Snow Light Snow
9:53 AM 12.9 °F -2.8 °F 9.0 °F 84% 30.00 in 0.8 mi NNE 15.0 mph - 0.00 in Snow Light Snow
10:09 AM 12.2 °F -3.1 °F 8.6 °F 85% 29.87 in 0.5 mi NNE 13.8 mph - 0.00 in Fog , Snow Snow
10:53 AM 12.0 °F -6.0 °F 8.1 °F 84% 29.99 in 0.5 mi North 19.6 mph - 0.00 in Fog , Snow Snow
11:23 AM 12.2 °F -4.3 °F 6.8 °F 79% 29.87 in 1.0 mi North 16.1 mph 20.7 mph 0.00 in Snow Light Snow
11:53 AM 10.9 °F -4.7 °F 6.1 °F 81% 29.99 in 1.5 mi North 13.8 mph - 0.00 in Snow Light Snow
12:12 PM 10.4 °F -4.8 °F 5.0 °F 79% 29.84 in 0.8 mi North 12.7 mph 23.0 mph 0.00 in Snow Light Snow
12:34 PM 10.4 °F -4.1 °F 6.8 °F 85% 29.86 in 1.2 mi North 11.5 mph 16.1 mph 0.00 in Snow Light Snow
12:53 PM 10.9 °F -2.6 °F 6.1 °F 81% 30.00 in 1.5 mi North 10.4 mph - 0.00 in Snow Light Snow
1:28 PM 10.4 °F -5.4 °F 5.0 °F 79% 29.85 in 1.0 mi North 13.8 mph - 0.00 in Snow Light Snow
1:36 PM 10.4 °F -5.4 °F 5.0 °F 79% 29.85 in 0.8 mi NNE 13.8 mph - 0.00 in Snow Light Snow
1:53 PM 10.0 °F -5.2 °F 5.0 °F 80% 30.00 in 1.0 mi North 12.7 mph 19.6 mph 0.00 in Snow Light Snow
2:01 PM 10.4 °F -4.8 °F 5.0 °F 79% 29.86 in 1.2 mi North 12.7 mph - 0.00 in Snow Light Snow
2:53 PM 9.0 °F -8.5 °F 3.9 °F 80% 29.98 in 1.5 mi North 16.1 mph - 0.00 in Snow Light Snow
3:33 PM 8.6 °F -6.3 °F 3.2 °F 79% 29.87 in 2.5 mi North 11.5 mph - 0.00 in Snow Light Snow
3:53 PM 9.0 °F -5.9 °F 3.9 °F 80% 30.03 in 3.0 mi North 11.5 mph - 0.00 in Snow Light Snow
4:04 PM 8.6 °F -7.0 °F 3.2 °F 79% 29.90 in 2.5 mi North 12.7 mph - 0.00 in Snow Light Snow
4:29 PM 8.6 °F -3.7 °F 3.2 °F 79% 29.92 in 1.8 mi NNW 8.1 mph - 0.00 in Snow Light Snow
4:53 PM 8.1 °F -8.4 °F 3.9 °F 83% 30.06 in 1.8 mi North 13.8 mph - 0.00 in Snow Light Snow
5:14 PM 8.6 °F -5.5 °F 3.2 °F 79% 29.91 in 1.0 mi NNW 10.4 mph - 0.00 in Snow Light Snow
5:44 PM 8.6 °F -7.7 °F 3.2 °F 79% 29.90 in 1.8 mi North 13.8 mph 18.4 mph 0.00 in Snow Light Snow
5:53 PM 7.0 °F -10.4 °F 3.0 °F 84% 30.04 in 1.5 mi North 15.0 mph - 0.00 in Snow Light Snow
6:27 PM 6.8 °F -10.7 °F 1.4 °F 79% 29.90 in 2.0 mi North 15.0 mph - 0.00 in Snow Light Snow
6:44 PM 6.8 °F -10.7 °F 1.4 °F 79% 29.91 in 1.5 mi North 15.0 mph - 0.00 in Snow Light Snow
6:53 PM 7.0 °F -9.1 °F 1.9 °F 80% 30.08 in 1.5 mi North 12.7 mph - 0.00 in Snow Light Snow
7:53 PM 7.0 °F -7.5 °F 1.9 °F 80% 30.07 in 1.8 mi North 10.4 mph - 0.00 in Snow Light Snow
8:21 PM 6.8 °F -9.3 °F 3.2 °F 85% 29.93 in 2.0 mi NNW 12.7 mph - 0.00 in Snow Light Snow
8:28 PM 6.8 °F -8.6 °F 3.2 °F 85% 29.93 in 1.8 mi NNW 11.5 mph - 0.00 in Snow Light Snow
8:53 PM 7.0 °F -9.8 °F 3.0 °F 84% 30.09 in 1.2 mi NNW 13.8 mph - 0.00 in Snow Light Snow
9:53 PM 7.0 °F -8.3 °F 1.9 °F 80% 30.09 in 1.8 mi North 11.5 mph - 0.00 in Snow Light Snow
10:53 PM 6.1 °F -11.6 °F 1.9 °F 83% 30.09 in 1.2 mi North 15.0 mph - 0.00 in Snow Light Snow
11:53 PM 6.1 °F -11.6 °F 1.0 °F 80% 30.10 in 1.2 mi NNW 15.0 mph 23.0 mph 0.00 in Snow Light Snow